Anchorage, AK

1:39 AM AKST on January 24, 2017 (GMT -0900)
Lake Hood

Weather History for PALH - September, 2013

Change the Weather History Date:

Wednesday, September 11, 2013

  Actual Average Record
Temperature  
Mean Temperature 55 °F -  
Max Temperature 59 °F 55 °F 66 °F (2003)
Min Temperature 51 °F 41 °F 33 °F (1996)
Degree Days  
Heating Degree Days 10    
Growing Degree Days 5 (Base 50)    
Moisture  
Dew Point 48 °F    
Average Humidity 83    
Maximum Humidity 96    
Minimum Humidity 67    
Precipitation  
Precipitation 0.95 in - - ()
Sea Level Pressure  
Sea Level Pressure 29.72 in    
Wind  
Wind Speed 5 mph (ESE)    
Max Wind Speed 10 mph    
Max Gust Speed 16 mph    
Visibility 8 miles    
Events Rain    
Averages and records for this station are not official NWS values.
T = Trace of Precipitation, MM = Missing Value Source: NWS Daily Summary

Daily Weather History Graph

Daily Weather History Graph

Search for Another Location

Airport or City:

Trip Planner

Search our weather history database for the weather conditions in past years. The results will help you decide how hot, cold, wet, or windy it might be!

Date:

Astronomy

Sep. 11, 2013 Rise Set
Actual Time 7:17 AM AKDT 8:33 PM AKDT
Civil Twilight 6:33 AM AKDT 9:17 PM AKDT
Nautical Twilight 5:37 AM AKDT 10:13 PM AKDT
Astronomical Twilight 4:30 AM AKDT 11:18 PM AKDT
Moon 3:49 PM AKDT (9/11) 10:44 PM AKDT (9/11)
Length of Visible Light 14h 44m
Length of Day
13h 15m
Waxing Crescent, 40% of the Moon is Illuminated
Sep 11
Waxing Crescent
Sep 12
First Quarter
Sep 19
Full
Sep 26
Last Quarter
Oct 4
New

Hourly Weather History & Observations

Time (AKDT) Temp. Dew Point Humidity Pressure Visibility Wind Dir Wind Speed Gust Speed Precip Events Conditions
12:53 AM 53.1 °F 51.1 °F 93% 29.72 in 6.0 mi NNE 4.6 mph - 0.10 in Rain Rain
1:53 AM 52.0 °F 50.0 °F 93% 29.70 in 8.0 mi NNE 5.8 mph - 0.11 in Rain Light Rain
2:53 AM 52.0 °F 50.0 °F 93% 29.68 in 7.0 mi NNE 5.8 mph - 0.04 in Rain Light Rain
3:41 AM 51.8 °F 48.2 °F 88% 29.65 in 10.0 mi NNE 6.9 mph - 0.03 in Rain Light Rain
3:53 AM 51.1 °F 48.9 °F 92% 29.65 in 10.0 mi NNE 5.8 mph - 0.04 in Rain Light Rain
4:53 AM 51.1 °F 48.9 °F 92% 29.64 in 6.0 mi NE 4.6 mph - 0.05 in Rain Light Rain
5:10 AM 51.8 °F 48.2 °F 88% 29.63 in 6.0 mi NE 3.5 mph - 0.02 in Rain Rain
5:19 AM 51.8 °F 48.2 °F 88% 29.63 in 5.0 mi NNE 4.6 mph - 0.04 in Rain Rain
5:53 AM 51.1 °F 48.9 °F 92% 29.63 in 5.0 mi NE 4.6 mph - 0.11 in Rain Rain
6:10 AM 51.8 °F 48.2 °F 88% 29.62 in 5.0 mi NNE 3.5 mph - 0.04 in Rain Rain
6:37 AM 51.8 °F 48.2 °F 88% 29.62 in 5.0 mi NNE 3.5 mph - 0.09 in Rain Rain
6:53 AM 51.1 °F 48.9 °F 92% 29.62 in 5.0 mi NNE 6.9 mph - 0.14 in Rain Rain
7:06 AM 51.8 °F 48.2 °F 88% 29.61 in 5.0 mi NE 8.1 mph - 0.04 in Rain Rain
7:53 AM 51.1 °F 48.9 °F 92% 29.62 in 6.0 mi NE 6.9 mph - 0.14 in Rain Rain
8:53 AM 51.1 °F 48.9 °F 92% 29.62 in 4.0 mi Calm Calm - 0.09 in Rain Rain
9:36 AM 51.8 °F 48.2 °F 88% 29.63 in 4.0 mi South 3.5 mph - 0.07 in Rain Light Rain
9:53 AM 51.1 °F 50.0 °F 96% 29.64 in 6.0 mi Calm Calm - 0.08 in Rain Light Rain
10:53 AM 51.1 °F 46.9 °F 86% 29.67 in 10.0 mi Calm Calm - 0.02 in Rain Light Rain
11:53 AM 54.0 °F 50.0 °F 86% 29.70 in 10.0 mi South 5.8 mph - 0.01 in Rain Light Rain
12:53 PM 53.1 °F 46.9 °F 80% 29.73 in 10.0 mi South 8.1 mph - 0.00 in   Overcast
1:53 PM 55.9 °F 46.9 °F 72% 29.75 in 10.0 mi South 6.9 mph - N/A   Overcast
2:20 PM 53.6 °F 48.2 °F 82% 29.76 in 7.0 mi South 8.1 mph - N/A   Overcast
2:27 PM 55.4 °F 48.2 °F 77% 29.76 in 8.0 mi South 8.1 mph - N/A   Overcast
2:53 PM 57.0 °F 46.9 °F 69% 29.77 in 10.0 mi South 8.1 mph - N/A   Overcast
3:53 PM 57.0 °F 48.0 °F 72% 29.78 in 10.0 mi South 9.2 mph - N/A   Overcast
4:53 PM 55.9 °F 48.9 °F 77% 29.80 in 10.0 mi Variable 3.5 mph - 0.00 in   Overcast
5:06 PM 59.0 °F 48.2 °F 67% 29.79 in 10.0 mi SSE 8.1 mph - N/A   Overcast
5:53 PM 57.9 °F 48.0 °F 70% 29.81 in 10.0 mi South 9.2 mph - N/A   Mostly Cloudy
6:53 PM 57.9 °F 46.9 °F 67% 29.82 in 10.0 mi South 4.6 mph - N/A   Mostly Cloudy
7:53 PM 55.9 °F 48.0 °F 75% 29.84 in 10.0 mi South 5.8 mph - N/A   Overcast
8:53 PM 55.9 °F 46.9 °F 72% 29.86 in 10.0 mi SSW 6.9 mph - N/A   Overcast
9:53 PM 55.9 °F 46.9 °F 72% 29.87 in 10.0 mi South 8.1 mph - 0.01 in   Overcast
10:53 PM 55.0 °F 46.9 °F 74% 29.89 in 10.0 mi South 10.4 mph 16.1 mph 0.00 in   Overcast
11:53 PM 55.0 °F 48.0 °F 77% 29.91 in 10.0 mi South 4.6 mph - 0.01 in Rain Light Rain